COSMOS 2251 DEB, 35451

Orbit data source: Space-Track

COSMOS 2251 DEB, 35451 is space debris in LEO originally from a launch on Wed, 16 Jun 1993 UTC launched from the Plesetsk Missile And Space Complex (PKMTR). The debris from Iridium 33, an American commercial communications satellite, has been tracked extensively since its accidental collision with the defunct Russian satellite Cosmos 2251 in 2009. This event, occurring at high speed in low Earth orbit (LEO), generated thousands of pieces of space debris, significantly increasing the risk of further collisions. The Iridium 33 debris cloud has impacted space traffic management and orbital debris mitigation strategies, making it a subject of ongoing study in space situational awareness.

Loading next visibility...
Identifier
35451, 1993-036AKV
Orbit
LEO
Country
Flag of CISCIS
Related business
Manufacturer
Unknown
Mission
Spacecraft
Bus & Motor
Unknown
Mass
Unknown
Launch date (UTC)
1993-06-16 (33 years ago)
Launch vehicle
Unknown
Launch site
Plesetsk Missile And Space Complex (PKMTR)
Object type
Payload
Rocket body
Debris
Shape & HBR
Unknown shape, 0.1 m
Radar Cross Section
Small (<0.1 m²)

Expand to show TLE details & history
Last TLE update: 3 days ago

TLE from 3 days ago
0 COSMOS 2251 DEB
1 35451U 93036AKV 26117.11416081  .00170757  00000-0  18228-2 0  9998
2 35451  73.9208 164.9866 0023726 350.5143   9.5624 15.62941993694992
Epoch: 2026-04-27T02:44Z
TLE epoch observation values (Epoch: 2026-04-27T02:44:23.493Z)
Latitude
-0.00008°
Longitude
-91.21979°
Altitude
366.108 km
Speed
7.699 km/s
True Right ascension
10h 59m 56s
True Declination
0° 00' 00"
Sunlit
Object was in full shadow at epoch
Visualization orbit readout
Latitude
Unknown
Longitude
Unknown
Altitude
Unknown
Speed
Unknown
Apparent Right ascension
Unknown
Apparent Declination
Unknown
Sunlit
N/A
Visualization observer readout
Local Sidereal Time
17:27:09
Azimuth
Unknown
Elevation
Unknown
Doppler factor
Unknown
Orbital elements
Apogee altitude
392.686 km
Perigee altitude
360.634 km
Semi-major axis
6,754.797 km
Eccentricity
0.00237
Inclination
73.9208°
RAAN
164.9866°
Arg. of periapsis
350.5143°
True anomaly
9.6077°
Mean anomaly
9.5624°
Eccentric anomaly
9.58504°
Mean motion
3.90953 °/min
Orbital period
92.08 mins
BSTAR
0.0018228
Loading maneuver chart data...
Computing Atmospheric mass density...

Documentation

Showing up to 5 results
|